Retour au catalogue

THORAD DELTA 1 DEB

ActifSSO
NORAD 8566·DEBRIS·🇺🇸 United States

Lancé Nov 15, 1974 depuis Vandenberg Space Force Base

Loading…

Prochains Passages (prochaines 24 heures)

TLE

FraisSource: Space-Track

Époque: Sep 13, 2026, 16:53 UTC

1 08566U 74089DD  26256.70349080 -.00000162  00000-0 -60669-3 0  9996
2 08566 101.3623 332.2401 0086768 248.0927 267.5597 12.67025188310066

Suivez THORAD DELTA 1 DEB en temps réel avec AllMySat

Download on the App Store